TimeEDT,TemperatureF,Dew PointF,Humidity,Sea Level PressureIn,VisibilityMPH,Wind Direction,Wind SpeedMPH,Gust SpeedMPH,PrecipitationIn,Events,Conditions,WindDirDegrees,DateUTC
12:08 AM,75.2,75.2,100,30.04,10.0,Calm,Calm,-,N/A,Rain,Light Rain,0,2012-10-09 04:08:00
12:12 AM,75.2,75.2,100,30.04,10.0,Calm,Calm,-,N/A,,Clear,0,2012-10-09 04:12:00
12:14 AM,75.2,75.2,100,30.04,10.0,Calm,Calm,-,N/A,,Light Drizzle,0,2012-10-09 04:14:00
12:24 AM,75.2,75.2,100,30.03,10.0,Calm,Calm,-,N/A,,Clear,0,2012-10-09 04:24:00
12:45 AM,75.2,73.4,94,30.02,8.0,Calm,Calm,-,N/A,,Clear,0,2012-10-09 04:45:00
12:50 AM,75.2,75.2,100,30.02,5.0,SSW,3.5,-,N/A,Rain,Light Rain,210,2012-10-09 04:50:00
12:55 AM,74.5,74.5,100,30.02,3.0,SSW,5.8,-,0.00,Rain,Light Rain,210,2012-10-09 04:55:00
12:56 AM,75.2,75.2,100,30.02,3.0,SSW,4.6,-,N/A,Rain,Light Rain,210,2012-10-09 04:56:00
1:00 AM,75.2,75.2,100,30.02,3.0,SSW,4.6,-,N/A,,Clear,210,2012-10-09 05:00:00
1:06 AM,75.2,75.2,100,30.01,3.0,South,3.5,-,N/A,Rain,Light Rain,180,2012-10-09 05:06:00
1:07 AM,75.2,75.2,100,30.01,2.5,South,3.5,-,N/A,Rain,Light Rain,180,2012-10-09 05:07:00
1:11 AM,75.2,75.2,100,30.01,1.8,SSW,4.6,-,N/A,Rain,Light Rain,200,2012-10-09 05:11:00
1:12 AM,75.2,75.2,100,30.01,1.8,SSW,4.6,-,N/A,,Clear,200,2012-10-09 05:12:00
1:13 AM,75.2,75.2,100,30.01,1.8,SSW,5.8,-,N/A,,Clear,210,2012-10-09 05:13:00
1:15 AM,75.2,75.2,100,30.01,1.8,SSW,5.8,-,N/A,,Clear,210,2012-10-09 05:15:00
1:17 AM,75.2,75.2,100,30.01,2.0,SSW,5.8,-,N/A,,Clear,210,2012-10-09 05:17:00
1:19 AM,75.2,75.2,100,30.01,2.5,SSW,4.6,-,N/A,,Clear,210,2012-10-09 05:19:00
1:20 AM,75.2,75.2,100,30.01,3.0,SW,3.5,-,N/A,,Clear,220,2012-10-09 05:20:00
1:21 AM,75.2,75.2,100,30.01,4.0,SW,3.5,-,N/A,,Clear,220,2012-10-09 05:21:00
1:55 AM,73.6,73.6,100,30.01,10.0,Calm,Calm,-,0.00,,Clear,0,2012-10-09 05:55:00
2:55 AM,72.0,71.8,99,29.99,10.0,Calm,Calm,-,N/A,,Clear,0,2012-10-09 06:55:00
3:55 AM,71.6,71.6,100,29.99,10.0,Calm,Calm,-,N/A,,Clear,0,2012-10-09 07:55:00
4:55 AM,71.6,71.6,100,29.99,9.0,Calm,Calm,-,N/A,,Clear,0,2012-10-09 08:55:00
5:55 AM,71.2,71.2,100,30.00,10.0,Calm,Calm,-,N/A,,Clear,0,2012-10-09 09:55:00
6:55 AM,70.9,70.9,100,30.01,10.0,East,3.5,-,N/A,,Clear,80,2012-10-09 10:55:00
7:55 AM,71.1,71.1,100,30.02,8.0,Calm,Calm,-,N/A,,Clear,0,2012-10-09 11:55:00
8:55 AM,77.4,77.4,100,30.04,10.0,East,3.5,-,N/A,,Clear,80,2012-10-09 12:55:00
9:55 AM,81.1,77.4,88,30.05,10.0,East,6.9,-,N/A,,Clear,100,2012-10-09 13:55:00
10:55 AM,81.3,77.0,87,30.05,5.0,ESE,8.1,-,N/A,,Haze,120,2012-10-09 14:55:00
11:12 AM,82.4,77.0,84,30.06,5.0,ESE,8.1,-,N/A,,Haze,120,2012-10-09 15:12:00
11:13 AM,82.4,77.0,84,30.05,5.0,SE,8.1,-,N/A,,Haze,130,2012-10-09 15:13:00
11:18 AM,82.4,77.0,84,30.06,6.0,Variable,4.6,-,N/A,,Haze,0,2012-10-09 15:18:00
11:19 AM,82.4,77.0,84,30.06,6.0,East,5.8,-,N/A,,Haze,80,2012-10-09 15:19:00
11:31 AM,82.4,77.0,84,30.04,6.0,ESE,8.1,-,N/A,,Haze,120,2012-10-09 15:31:00
11:35 AM,82.4,77.0,84,30.05,6.0,East,9.2,-,N/A,,Haze,100,2012-10-09 15:35:00
11:55 AM,82.6,76.5,82,30.06,6.0,East,6.9,-,N/A,,Haze,90,2012-10-09 15:55:00
12:02 PM,82.4,77.0,84,30.06,6.0,ESE,6.9,-,N/A,,Haze,120,2012-10-09 16:02:00
12:55 PM,83.1,76.1,79,30.05,5.0,SE,9.2,-,N/A,,Haze,140,2012-10-09 16:55:00
1:10 PM,82.4,75.2,79,30.05,5.0,SE,6.9,-,N/A,,Haze,130,2012-10-09 17:10:00
1:17 PM,84.2,77.0,79,30.05,5.0,ESE,8.1,-,N/A,,Haze,120,2012-10-09 17:17:00
1:55 PM,85.1,75.4,73,30.04,7.0,East,5.8,-,N/A,,Partly Cloudy,90,2012-10-09 17:55:00
2:55 PM,86.0,75.2,70,30.02,10.0,East,4.6,-,N/A,,Scattered Clouds,100,2012-10-09 18:55:00
3:55 PM,86.7,74.8,68,30.01,10.0,Calm,Calm,-,N/A,,Scattered Clouds,0,2012-10-09 19:55:00
4:55 PM,89.8,76.1,64,30.00,10.0,Calm,Calm,-,N/A,,Overcast,0,2012-10-09 20:55:00
5:55 PM,86.4,74.5,68,30.00,10.0,Variable,3.5,-,N/A,,Scattered Clouds,0,2012-10-09 21:55:00
6:55 PM,82.6,74.3,76,30.01,10.0,ENE,4.6,-,N/A,,Clear,60,2012-10-09 22:55:00
7:55 PM,79.0,73.4,83,30.02,10.0,NNE,4.6,-,N/A,,Scattered Clouds,20,2012-10-09 23:55:00
8:55 PM,77.4,73.0,86,30.04,10.0,NE,5.8,-,N/A,,Clear,40,2012-10-10 00:55:00
9:44 PM,77.0,71.6,83,30.05,10.0,ENE,4.6,-,N/A,Rain,Light Rain,60,2012-10-10 01:44:00
9:55 PM,75.7,72.5,90,30.05,10.0,ENE,4.6,-,0.00,,Clear,60,2012-10-10 01:55:00
10:33 PM,75.2,73.4,94,30.06,10.0,ENE,4.6,-,N/A,Rain,Light Rain,60,2012-10-10 02:33:00
10:42 PM,75.2,73.4,94,30.06,10.0,ENE,5.8,-,N/A,,Clear,60,2012-10-10 02:42:00
10:55 PM,75.0,72.9,93,30.07,10.0,ENE,5.8,-,0.00,,Clear,60,2012-10-10 02:55:00
11:55 PM,75.7,74.3,95,30.06,10.0,ESE,8.1,-,N/A,,Clear,110,2012-10-10 03:55:00